Weather History for Punta Gorda, FL

Change the Weather History Date:

Sunday, November 18, 2012

  Actual Average Record
Temperature  
Mean Temperature 70 °F -  
Max Temperature 77 °F 77 °F 87 °F (1998)
Min Temperature 60 °F 56 °F 44 °F (2002)
Cooling Degree Days 4    
Growing Degree Days 20 (Base 50)    
Moisture  
Dew Point 60 °F    
Average Humidity 79    
Maximum Humidity 94    
Minimum Humidity 57    
Precipitation  
Precipitation 0.00 in - - ()
Sea Level Pressure  
Sea Level Pressure 30.14 in    
Wind  
Wind Speed 9 mph (NE)    
Max Wind Speed 16 mph    
Max Gust Speed 22 mph    
Visibility 10 miles    
Events      
Averages and records for this station are not official NWS values.
T = Trace of Precipitation, MM = Missing Value Source: NWS Daily Summary

Daily Weather History Graph

Daily Weather History Graph

Search for Another Location

Airport:

Trip Planner

Search our weather history database for the weather conditions in past years. The results will help you decide how hot, cold, wet, or windy it might be!

Date:

Astronomy

Nov. 18, 2012 Rise Set
Actual Time 6:50 AM EST 5:35 PM EST
Civil Twilight 6:25 AM EST 6:00 PM EST
Nautical Twilight 5:57 AM EST 6:28 PM EST
Astronomical Twilight 5:29 AM EST 6:56 PM EST
Moon 11:21 AM EST (11/18) 10:46 PM EST (11/18)
Length of Visible Light 11h 34m
Length of Day
10h 45m
Waxing Crescent, 30% of the Moon is Illuminated
Nov 18
Waxing Crescent
Nov 20
First Quarter
Nov 28
Full
Dec 6
Last Quarter
Dec 13
New

Hourly Weather History & Observations

Time (EST) Temp. Dew Point Humidity Pressure Visibility Wind Dir Wind Speed Gust Speed Precip Events Conditions
12:53 AM 64.0 °F 60.1 °F 87% 30.13 in 10.0 mi NE 8.1 mph - N/A   Clear
1:53 AM 63.0 °F 60.1 °F 90% 30.13 in 10.0 mi NNE 5.8 mph - N/A   Clear
2:53 AM 62.1 °F 59.0 °F 90% 30.11 in 9.0 mi NNE 6.9 mph - N/A   Clear
3:46 AM 62.6 °F 60.8 °F 94% 30.11 in 9.0 mi NNE 10.4 mph 17.3 mph N/A   Scattered Clouds
3:53 AM 62.1 °F 60.1 °F 93% 30.11 in 9.0 mi NNE 10.4 mph 17.3 mph N/A   Mostly Cloudy
4:53 AM 63.0 °F 60.1 °F 90% 30.12 in 10.0 mi NNE 9.2 mph - N/A   Overcast
5:30 AM 62.6 °F 60.8 °F 94% 30.12 in 10.0 mi NE 5.8 mph - N/A   Scattered Clouds
5:53 AM 62.1 °F 59.0 °F 90% 30.12 in 9.0 mi NNE 5.8 mph - N/A   Clear
6:32 AM 62.6 °F 60.8 °F 94% 30.13 in 10.0 mi NNE 10.4 mph - N/A   Scattered Clouds
6:41 AM 62.6 °F 60.8 °F 94% 30.13 in 10.0 mi NNE 10.4 mph - N/A   Mostly Cloudy
6:53 AM 63.0 °F 60.1 °F 90% 30.14 in 10.0 mi NNE 12.7 mph - N/A   Overcast
7:53 AM 64.0 °F 61.0 °F 90% 30.16 in 10.0 mi NE 8.1 mph - N/A   Overcast
8:53 AM 66.9 °F 61.0 °F 81% 30.17 in 10.0 mi NE 11.5 mph - N/A   Overcast
9:53 AM 70.0 °F 61.0 °F 73% 30.18 in 10.0 mi NE 12.7 mph - N/A   Mostly Cloudy
10:24 AM 71.6 °F 60.8 °F 69% 30.18 in 10.0 mi ENE 16.1 mph - N/A   Scattered Clouds
10:53 AM 72.0 °F 61.0 °F 68% 30.18 in 10.0 mi NNE 11.5 mph - N/A   Mostly Cloudy
11:01 AM 71.6 °F 60.8 °F 69% 30.17 in 10.0 mi NE 13.8 mph - N/A   Mostly Cloudy
11:53 AM 71.1 °F 61.0 °F 70% 30.17 in 10.0 mi NE 15.0 mph 21.9 mph N/A   Overcast
12:53 PM 73.9 °F 61.0 °F 64% 30.14 in 10.0 mi NE 13.8 mph - N/A   Overcast
1:24 PM 75.2 °F 60.8 °F 61% 30.12 in 10.0 mi NE 13.8 mph 21.9 mph N/A   Partly Cloudy
1:53 PM 75.9 °F 62.1 °F 62% 30.12 in 10.0 mi NE 13.8 mph 19.6 mph N/A   Partly Cloudy
2:53 PM 77.0 °F 61.0 °F 58% 30.12 in 10.0 mi ENE 8.1 mph - N/A   Clear
3:53 PM 75.0 °F 60.1 °F 60% 30.11 in 10.0 mi ENE 12.7 mph - N/A   Partly Cloudy
4:53 PM 75.0 °F 59.0 °F 57% 30.12 in 10.0 mi NE 10.4 mph - N/A   Clear
5:53 PM 68.0 °F 59.0 °F 73% 30.13 in 10.0 mi NE 4.6 mph - N/A   Scattered Clouds
6:53 PM 66.0 °F 57.9 °F 75% 30.15 in 10.0 mi NNE 5.8 mph - N/A   Clear
7:53 PM 64.9 °F 57.9 °F 78% 30.17 in 10.0 mi NE 5.8 mph - N/A   Scattered Clouds
8:53 PM 64.0 °F 57.9 °F 80% 30.19 in 10.0 mi NE 8.1 mph - N/A   Mostly Cloudy
9:53 PM 63.0 °F 57.9 °F 84% 30.19 in 10.0 mi NNE 8.1 mph - N/A   Clear
10:53 PM 62.1 °F 57.0 °F 84% 30.19 in 10.0 mi NNE 9.2 mph - N/A   Clear
11:53 PM 60.1 °F 55.9 °F 86% 30.18 in 10.0 mi NE 8.1 mph - N/A   Clear